Regional Weather Roundup
Issued by NWS

Home | Current Version | Previous Version | Graphics & Text | Print | Product List | Glossary On
Versions: 1 2 3 4 5 6 7 8 9 10 11 12 13 14 15 16 17 18 19 20 21 22 23 24 25 26 27 28 29 30 31 32 33 34 35 36 37 38 39 40 41 42 43 44 45 46 47 48 49 50
000
ASUS43 KOAX 200010
RWRNE

WEATHER ROUNDUP FOR NEBRASKA
NATIONAL WEATHER SERVICE OMAHA NE
700 PM CDT TUE SEP 19 2017

NOTES: SATELLITE DATA IS BEING USED TO AUGMENT CLOUD COVER ABOVE
       12000 FEET.
       "FAIR" INDICATES FEW OR NO CLOUDS BELOW 12,000 FEET WITH NO
       SIGNIFICANT WEATHER AND/OR OBSTRUCTIONS TO VISIBILITY.


NEZ001>004-019>022-054>056-200100-
NEBRASKA PANHANDLE

CITY           SKY/WX    TMP DP  RH WIND       PRES   REMARKS
SCOTTSBLUFF    MOCLDY    61  34  36 W29G39    29.74R
6HR MIN TEMP:  61; 6HR MAX TEMP:  82; 6HR PCP: TRACE;

ALLIANCE       CLEAR     63  34  33 NW32G40   29.71R
6HR MIN TEMP:  63; 6HR MAX TEMP:  84;

CHADRON        PTCLDY    65  34  31 W21G28    29.70R
6HR MIN TEMP:  64; 6HR MAX TEMP:  83;

GORDON         CLOUDY    64  40  41 NW18G31   29.67R
6HR MIN TEMP:  64; 6HR MAX TEMP:  81;

KIMBALL        CLEAR     60  35  38 NW30G38   29.77R
SIDNEY         CLEAR     66  38  35 N30G41    29.72R
6HR MIN TEMP:  66; 6HR MAX TEMP:  86;

$$

NEZ057>060-069>072-079>082-200100-
SOUTHWEST NEBRASKA

CITY           SKY/WX    TMP DP  RH WIND       PRES   REMARKS
NORTH PLATTE   CLOUDY    81  49  32 VRB5      29.48R
6HR MIN TEMP:  80; 6HR MAX TEMP:  92;

IMPERIAL       CLOUDY    83  44  25 VRB3      29.52R
6HR MIN TEMP:  83; 6HR MAX TEMP:  92;

LEXINGTON      CLOUDY    87  53  30 CALM      29.48R
MCCOOK         PTCLDY    89  33  13 SW10      29.48R
6HR MIN TEMP:  88; 6HR MAX TEMP:  95;

OGALLALA       CLOUDY    86  37  17 NW5       29.54R
$$

NEZ005>010-023>029-035>040-094-200100-
NORTH CENTRAL NEBRASKA

CITY           SKY/WX    TMP DP  RH WIND       PRES   REMARKS
VALENTINE      CLOUDY    84  57  39 W9        29.51R
6HR MIN TEMP:  74; 6HR MAX TEMP:  86;

AINSWORTH      CLOUDY    79  62  55 CALM      29.50S
BROKEN BOW     CLEAR     84  59  42 S7        29.47F
6HR MIN TEMP:  80; 6HR MAX TEMP:  90;

O`NEILL        CLOUDY    82  67  60 S12       29.49S
ORD            CLOUDY    85  63  47 SE10      29.45S
6HR MIN TEMP:  79; 6HR MAX TEMP:  86;

THEDFORD       CLOUDY    83  52  33 W5        29.51F
$$

NEZ041-046>049-061>064-073>077-083>087-200100-
SOUTH CENTRAL NEBRASKA

CITY           SKY/WX    TMP DP  RH WIND       PRES   REMARKS
GRAND ISLAND   CLOUDY    85  67  54 SE20G26   29.48S
6HR MIN TEMP:  83; 6HR MAX TEMP:  88;

AURORA         CLOUDY    85  65  51 S17G23    29.49S
HASTINGS       CLOUDY    89  60  37 S15G25    29.48F
6HR MIN TEMP:  84; 6HR MAX TEMP:  92;

HEBRON         CLOUDY    89  67  49 S15G23    29.52F HX  92
HOLDREGE       CLOUDY    90  36  14 S16       29.48R
KEARNEY        CLOUDY    84  62  47 S10       29.47R
YORK           CLOUDY    86  66  51 S16G23    29.50F
$$

NEZ011>018-030>034-042>045-200100-
NORTHEAST NEBRASKA

CITY           SKY/WX    TMP DP  RH WIND       PRES   REMARKS
NORFOLK        CLOUDY    83  68  60 SE12      29.49S
6HR MIN TEMP:  79; 6HR MAX TEMP:  87;

ALBION         CLOUDY    83  70  64 SE10      29.49S
BLAIR          CLOUDY    83  69  61 SE18G26   29.57S
COLUMBUS       CLOUDY    85  69  58 SE14      29.50F
FREMONT        CLOUDY    84  68  57 SE16G23   29.55S
TEKAMAH        CLOUDY    83  67  58 SE15G26   29.54F
6HR MIN TEMP:  83; 6HR MAX TEMP:  88;

WAYNE          MOCLDY    81  71  73 SE16      29.52S
$$

NEZ050>053-065>068-078-088>093-200100-
SOUTHEAST NEBRASKA

CITY           SKY/WX    TMP DP  RH WIND       PRES   REMARKS
LINCOLN        CLOUDY    87  68  52 SE22G30   29.54F HX  90
6HR MIN TEMP:  87; 6HR MAX TEMP:  92;

OMAHA EPPLEY   CLOUDY    85  67  54 SE28G35   29.57F
6HR MIN TEMP:  84; 6HR MAX TEMP:  90;

BEATRICE       CLOUDY    89  70  53 S16G26    29.56S HX  93
FALLS CITY     CLEAR     84  68  58 SE18G32   29.63S
6HR MIN TEMP:  84; 6HR MAX TEMP:  89;

NEBRASKA CITY  CLEAR     83  70  63 S15G26    29.62S
PLATTSMOUTH    CLEAR     83  70  64 SE16G29   29.60F
$$

NEZ044-045-051>053-067-200100-
OMAHA AREA

CITY           SKY/WX    TMP DP  RH WIND       PRES   REMARKS
OMAHA EPPLEY   CLOUDY    85  67  54 SE28G35   29.57F
6HR MIN TEMP:  84; 6HR MAX TEMP:  90;

BLAIR          CLOUDY    83  69  61 SE18G26   29.57S
FREMONT        CLOUDY    84  68  57 SE16G23   29.55S
MILLARD        CLOUDY    85  71  62 SE24      29.57S HX  91
OFFUTT AFB     CLOUDY    84  68  59 SE23G29   29.58F
PLATTSMOUTH    CLEAR     83  70  64 SE16G29   29.60F
WAHOO          FAIR      85  67  53 SE22G30   29.54S
$$




USA.gov is the U.S. government's official web portal to all federal, state and local government web resources and services.